DW8231 Weather Reports


Display with metric or nautical units.
time (UTC)temp
F
wind
direction
speed
MPH
gust
MPH
rain 1hr
in
rain 24hr
in
rain mn
in
humidity
%
barometer
mb
20260906234102 75 84 0.0 0.0 0.00 0.00 0.00 76 1015.6
20260906233559 75 77 0.0 0.0 0.00 0.00 0.00 76 1015.6
20260906233059 75 104 0.0 0.0 0.00 0.00 0.00 75 1015.7
20260906232558 75 98 0.0 0.0 0.00 0.00 0.00 75 1015.6
20260906232058 75 82 0.0 0.0 0.00 0.00 0.00 75 1015.8
20260906231600 75 126 0.0 0.0 0.00 0.00 0.00 75 1015.7
20260906231057 75 65 0.0 0.0 0.00 0.00 0.00 74 1015.5
20260906230559 75 103 0.0 0.0 0.00 0.00 0.00 74 1015.5
20260906225557 76 68 0.0 0.0 0.00 0.00 0.00 74 1015.3
20260906225058 76 103 0.0 0.0 0.00 0.00 0.00 74 1015.3
20260906224558 76 111 0.0 0.0 0.00 0.00 0.00 74 1015.3
20260906224057 76 80 0.0 0.0 0.00 0.00 0.00 74 1015.4
20260906223557 77 76 0.0 0.0 0.00 0.00 0.00 74 1015.5
20260906223055 77 113 0.0 0.0 0.00 0.00 0.00 74 1015.6
20260906222555 77 113 0.0 0.0 0.00 0.00 0.00 73 1015.6
20260906222055 77 111 0.0 0.0 0.00 0.00 0.00 73 1015.7
20260906221557 77 128 0.0 0.0 0.00 0.00 0.00 73 1015.8
20260906221054 77 128 0.0 0.0 0.00 0.00 0.00 72 1016.2
20260906220553 77 128 0.0 0.0 0.00 0.00 0.00 72 1016.2
20260906220054 77 128 0.0 0.0 0.00 0.00 0.00 72 1016.2
20260906215554 77 127 0.0 0.0 0.00 0.00 0.00 72 1016.1
20260906215055 77 145 0.0 0.0 0.00 0.00 0.00 71 1016.1
20260906214553 78 113 0.0 0.0 0.00 0.00 0.00 70 1016.1
20260906214053 78 121 0.0 0.0 0.00 0.00 0.00 71 1016.1
20260906213553 78 141 0.0 0.0 0.00 0.00 0.00 71 1016.0
20260906213057 78 141 0.0 0.0 0.00 0.00 0.00 71 1016.0
20260906212552 78 171 0.0 0.0 0.00 0.00 0.00 71 1016.0
20260906212054 78 155 0.0 0.0 0.00 0.00 0.00 71 1016.0
20260906211551 78 155 0.0 0.0 0.00 0.00 0.00 70 1016.0
20260906211051 78 156 0.0 0.0 0.00 0.00 0.00 71 1016.2
20260906210553 78 141 0.0 0.0 0.00 0.00 0.00 71 1016.2
20260906210056 78 193 0.0 0.0 0.00 0.00 0.00 71 1016.3
20260906205550 78 160 0.0 0.0 0.00 0.00 0.00 70 1016.6
20260906205051 78 192 0.0 0.0 0.00 0.00 0.00 70 1016.6
20260906204605 78 130 0.0 0.0 0.00 0.00 0.00 71 1016.8
20260906204050 78 180 0.0 0.0 0.00 0.00 0.00 71 1016.8
20260906203549 78 161 0.0 0.0 0.00 0.00 0.00 72 1016.8
20260906203049 78 180 0.0 0.0 0.00 0.00 0.00 72 1016.8
20260906202548 78 148 0.0 0.0 0.00 0.00 0.00 72 1016.9
20260906202048 78 117 0.0 0.0 0.00 0.00 0.00 72 1016.9
20260906201600 78 187 0.0 0.0 0.00 0.00 0.00 72 1016.7
20260906201047 78 157 0.0 0.0 0.00 0.00 0.00 73 1016.5
20260906200548 78 127 0.0 0.0 0.00 0.00 0.00 73 1016.5
20260906200050 78 111 0.0 0.0 0.00 0.00 0.00 72 1016.3
20260906195549 77 97 0.0 0.0 0.00 0.00 0.00 72 1016.3
20260906195049 78 134 0.0 0.0 0.00 0.00 0.00 72 1016.5
20260906194546 78 142 0.0 0.0 0.00 0.00 0.00 72 1016.6
20260906194045 78 117 0.0 0.0 0.00 0.00 0.00 72 1016.7
20260906193548 78 130 0.0 0.0 0.00 0.00 0.00 72 1016.6
20260906193046 78 135 0.0 0.0 0.00 0.00 0.00 72 1016.5
20260906192544 78 138 0.0 0.0 0.00 0.00 0.00 71 1016.7
20260906192044 78 113 0.0 0.0 0.00 0.00 0.00 72 1016.7
20260906191544 78 95 0.0 0.0 0.00 0.00 0.00 72 1016.6
20260906191044 78 124 0.0 0.0 0.00 0.00 0.00 72 1016.6
20260906190547 78 127 0.0 0.0 0.00 0.00 0.00 72 1016.6
20260906190044 78 132 0.0 0.0 0.00 0.00 0.00 73 1016.6
20260906185548 78 130 0.0 0.0 0.00 0.00 0.00 73 1016.6
20260906185044 78 121 0.0 0.0 0.00 0.00 0.00 72 1016.7
20260906184544 78 134 0.0 0.0 0.00 0.00 0.00 73 1016.6
20260906184045 78 128 0.0 0.0 0.00 0.00 0.00 73 1016.6
20260906183543 78 124 0.0 0.0 0.00 0.00 0.00 73 1016.5
20260906183045 78 137 0.0 0.0 0.00 0.00 0.00 73 1016.6
20260906182542 78 171 0.0 0.0 0.00 0.00 0.00 73 1016.7
20260906182041 78 112 0.0 0.0 0.00 0.00 0.00 74 1016.8
20260906181542 77 83 0.0 0.0 0.00 0.00 0.00 75 1016.8
20260906181039 77 65 0.0 0.0 0.00 0.00 0.00 76 1016.7
20260906180539 77 140 0.0 0.0 0.00 0.00 0.00 76 1016.7
20260906180054 77 104 0.0 0.0 0.00 0.00 0.00 76 1016.8
20260906175538 76 153 0.0 0.0 0.00 0.00 0.00 76 1017.0
20260906175034 76 126 0.0 0.0 0.00 0.00 0.00 77 1017.2
20260906174532 76 110 0.0 0.0 0.00 0.00 0.00 77 1017.3
20260906174036 76 111 0.0 0.0 0.00 0.00 0.00 77 1017.1
20260906173530 76 112 0.0 0.0 0.00 0.00 0.00 78 1017.1
20260906173029 75 132 0.0 0.0 0.00 0.00 0.00 79 1017.2
20260906172528 75 114 0.0 0.0 0.00 0.00 0.00 79 1017.4
20260906172026 75 127 0.0 0.0 0.00 0.00 0.00 79 1017.5
20260906171526 74 116 0.0 0.0 0.00 0.00 0.00 79 1017.5
20260906171025 75 107 0.0 0.0 0.00 0.00 0.00 78 1017.6
20260906170528 75 126 0.0 0.0 0.00 0.00 0.00 79 1017.6
20260906170027 75 149 0.0 0.0 0.00 0.00 0.00 79 1017.7
20260906165526 75 71 0.0 0.0 0.00 0.00 0.00 79 1017.7
20260906165025 75 108 0.0 0.0 0.00 0.00 0.00 78 1017.6
20260906164523 75 196 0.0 0.0 0.00 0.00 0.00 79 1017.6
20260906164023 74 164 0.0 0.0 0.00 0.00 0.00 79 1017.5
20260906163521 74 142 0.0 0.0 0.00 0.00 0.00 81 1017.6
20260906163020 73 138 0.0 0.0 0.00 0.00 0.00 82 1017.8
20260906162525 73 96 0.0 0.0 0.00 0.00 0.00 81 1017.8
20260906162019 73 109 0.0 0.0 0.00 0.00 0.00 81 1017.8
20260906161523 73 125 0.0 0.0 0.00 0.00 0.00 82 1017.7
20260906161019 73 102 0.0 0.0 0.00 0.00 0.00 84 1017.6
20260906160518 73 160 0.0 0.0 0.00 0.00 0.00 84 1017.7
20260906160017 72 126 0.0 0.0 0.00 0.00 0.00 84 1017.7
20260906155517 72 160 0.0 0.0 0.00 0.00 0.00 86 1017.8
20260906155018 72 175 0.0 0.0 0.00 0.00 0.00 86 1017.8
20260906154530 72 138 0.0 0.0 0.00 0.00 0.00 86 1017.9
20260906154018 71 150 0.0 0.0 0.00 0.00 0.00 87 1018.0
20260906153517 71 92 0.0 0.0 0.00 0.00 0.00 87 1018.0
20260906153019 71 190 0.0 0.0 0.00 0.00 0.00 88 1018.1
20260906152519 71 136 0.0 0.0 0.00 0.00 0.00 88 1018.2
20260906152021 71 119 0.0 0.0 0.00 0.00 0.00 88 1018.1
20260906151516 71 141 0.0 0.0 0.00 0.00 0.00 89 1018.1
20260906151016 71 198 0.0 0.0 0.00 0.00 0.00 90 1018.0
20260906150515 70 115 0.0 0.0 0.00 0.00 0.00 90 1018.0
20260906150015 70 117 0.0 0.0 0.00 0.00 0.00 91 1017.8
20260906145515 70 115 0.0 0.0 0.00 0.00 0.00 91 1017.8
20260906145014 70 154 0.0 0.0 0.00 0.00 0.00 91 1017.8
20260906144518 69 119 0.0 0.0 0.00 0.00 0.00 92 1017.8
20260906144013 69 116 0.0 0.0 0.00 0.00 0.00 92 1017.8
20260906143514 69 126 0.0 0.0 0.00 0.00 0.00 93 1017.9
20260906143014 69 207 0.0 0.0 0.00 0.00 0.00 93 1018.1
20260906142514 69 179 0.0 0.0 0.00 0.00 0.00 93 1018.0
20260906142014 69 128 0.0 0.0 0.00 0.00 0.00 93 1017.9
20260906141515 69 142 0.0 0.0 0.00 0.00 0.00 93 1017.9
20260906141016 68 129 0.0 0.0 0.00 0.00 0.00 94 1017.8
20260906140514 68 124 0.0 0.0 0.00 0.00 0.00 94 1017.8
20260906140030 68 136 0.0 0.0 0.00 0.00 0.00 93 1017.8
20260906135514 68 163 0.0 0.0 0.00 0.00 0.00 94 1017.8
20260906135017 68 107 0.0 0.0 0.00 0.00 0.00 94 1017.8
20260906134513 68 117 0.0 0.0 0.00 0.00 0.00 94 1017.7
20260906134013 68 164 0.0 0.0 0.00 0.00 0.00 94 1017.7
20260906133513 68 114 0.0 0.0 0.00 0.00 0.00 94 1017.6
20260906133022 68 132 0.0 0.0 0.00 0.00 0.00 94 1017.5
20260906132512 68 119 0.0 0.0 0.00 0.00 0.00 94 1017.5
20260906132013 67 147 0.0 0.0 0.00 0.00 0.00 94 1017.5
20260906131512 67 122 0.0 0.0 0.00 0.00 0.00 94 1017.5
20260906131011 67 144 0.0 0.0 0.00 0.00 0.00 94 1017.5
20260906130511 67 144 0.0 0.0 0.00 0.00 0.00 94 1017.5
20260906130020 67 127 0.0 0.0 0.00 0.00 0.00 94 1017.6
20260906125510 67 138 0.0 0.0 0.00 0.00 0.00 94 1017.5
20260906125014 67 121 0.0 0.0 0.00 0.00 0.00 94 1017.4
20260906124510 67 190 0.0 0.0 0.00 0.00 0.00 94 1017.3
20260906124011 67 124 0.0 0.0 0.00 0.00 0.00 94 1017.4
20260906123511 67 115 0.0 0.0 0.00 0.00 0.00 94 1017.4
20260906123018 67 137 0.0 0.0 0.00 0.00 0.00 94 1017.5
20260906122512 67 107 0.0 0.0 0.00 0.00 0.00 93 1017.4
20260906122009 67 106 0.0 0.0 0.00 0.00 0.00 93 1017.4
20260906121508 66 105 0.0 0.0 0.00 0.00 0.00 93 1017.3
20260906121007 66 106 0.0 0.0 0.00 0.00 0.00 93 1017.1
20260906120509 66 105 0.0 0.0 0.00 0.00 0.00 93 1017.1
20260906120009 66 105 0.0 0.0 0.00 0.00 0.00 93 1017.0
20260906115509 66 106 0.0 0.0 0.00 0.00 0.00 93 1016.9
20260906115008 66 109 0.0 0.0 0.00 0.00 0.00 93 1016.9
20260906114510 66 117 0.0 0.0 0.00 0.00 0.00 93 1016.9
20260906114008 67 117 0.0 0.0 0.00 0.00 0.00 93 1016.9
20260906113507 67 117 0.0 0.0 0.00 0.00 0.00 93 1016.9
20260906113011 67 117 0.0 0.0 0.00 0.00 0.00 93 1016.9
20260906112506 67 118 0.0 0.0 0.00 0.00 0.00 93 1017.0
20260906112005 67 118 0.0 0.0 0.00 0.00 0.00 93 1017.0
20260906111504 68 118 0.0 0.0 0.00 0.00 0.00 93 1017.0
20260906111003 68 118 0.0 0.0 0.00 0.00 0.00 93 1016.9
20260906110504 68 118 0.0 0.0 0.00 0.00 0.00 93 1016.9
20260906110003 68 118 0.0 0.0 0.00 0.00 0.00 93 1016.8
20260906105502 68 118 0.0 0.0 0.00 0.00 0.00 93 1016.8
20260906105001 68 118 0.0 0.0 0.00 0.00 0.00 93 1016.7
20260906104502 68 118 0.0 0.0 0.00 0.00 0.00 93 1016.6
20260906104100 68 118 0.0 0.0 0.00 0.00 0.00 93 1016.5
20260906103600 68 118 0.0 0.0 0.00 0.00 0.00 93 1016.5
20260906103102 69 118 0.0 0.0 0.00 0.00 0.00 93 1016.4
20260906102600 69 118 0.0 0.0 0.00 0.00 0.00 93 1016.5
20260906102101 69 118 0.0 0.0 0.00 0.00 0.00 93 1016.5
20260906101600 69 118 0.0 0.0 0.00 0.00 0.00 93 1016.4
20260906101100 69 118 0.0 0.0 0.00 0.00 0.00 93 1016.3
20260906100103 69 117 0.0 0.0 0.00 0.00 0.00 93 1016.1
20260906095559 69 117 0.0 0.0 0.00 0.00 0.00 93 1016.1
20260906095059 69 129 0.0 0.0 0.00 0.00 0.00 93 1016.0
20260906094603 68 115 0.0 0.0 0.00 0.00 0.00 93 1015.9
20260906094100 68 114 0.0 0.0 0.00 0.00 0.00 93 1015.9
20260906093559 68 117 0.0 0.0 0.00 0.00 0.00 93 1015.8
20260906093059 68 117 0.0 0.0 0.00 0.00 0.00 93 1015.7
20260906092601 68 119 0.0 0.0 0.00 0.00 0.00 93 1015.6
20260906092059 68 115 0.0 0.0 0.00 0.00 0.00 93 1015.6
20260906091558 68 121 0.0 0.0 0.00 0.00 0.00 93 1015.6
20260906091058 68 123 0.0 0.0 0.00 0.00 0.00 93 1015.6
20260906090059 68 115 0.0 0.0 0.00 0.00 0.00 93 1015.7
20260906085558 68 91 0.0 0.0 0.00 0.00 0.00 93 1015.7
20260906085058 68 87 0.0 0.0 0.00 0.00 0.00 92 1015.7
20260906084601 68 86 0.0 0.0 0.00 0.00 0.00 92 1015.7
20260906084100 69 86 0.0 0.0 0.00 0.00 0.00 92 1015.6
20260906083600 69 83 0.0 0.0 0.00 0.00 0.00 92 1015.5
20260906083059 69 105 0.0 0.0 0.00 0.00 0.00 92 1015.6
20260906082557 69 92 0.0 0.0 0.00 0.00 0.00 92 1015.7
20260906082056 69 89 0.0 0.0 0.00 0.00 0.00 92 1015.6
20260906081558 69 92 0.0 0.0 0.00 0.00 0.00 92 1015.6
20260906081056 69 113 0.0 0.0 0.00 0.00 0.00 92 1015.8
20260906080057 69 113 0.0 0.0 0.00 0.00 0.00 92 1015.8
20260906075557 69 112 0.0 0.0 0.00 0.00 0.00 92 1015.7
20260906075054 69 113 0.0 0.0 0.00 0.00 0.00 92 1015.9
20260906074555 69 113 0.0 0.0 0.00 0.00 0.00 92 1015.9
20260906074053 69 115 0.0 0.0 0.00 0.00 0.00 92 1015.8
20260906073554 69 93 0.0 0.0 0.00 0.00 0.00 92 1016.0
20260906073054 69 112 0.0 0.0 0.00 0.00 0.00 92 1016.0
20260906072554 69 113 0.0 0.0 0.00 0.00 0.00 92 1016.0
20260906072055 69 103 0.0 0.0 0.00 0.00 0.00 92 1015.9
20260906071553 69 105 0.0 0.0 0.00 0.00 0.00 91 1016.0
20260906071053 69 82 0.0 0.0 0.00 0.00 0.00 91 1015.9
20260906070053 70 88 0.0 0.0 0.00 0.00 0.00 91 1016.0
20260906065554 70 88 0.0 0.0 0.00 0.00 0.00 91 1016.0
20260906065053 70 80 0.0 0.0 0.00 0.00 0.00 91 1016.0
20260906064552 70 79 0.0 0.0 0.00 0.00 0.00 91 1016.1
20260906064052 70 80 0.0 0.0 0.00 0.00 0.00 90 1016.1
20260906063551 70 77 0.0 0.0 0.00 0.00 0.00 90 1016.2
20260906063052 70 76 0.0 0.0 0.00 0.00 0.00 90 1016.2
20260906062551 70 76 0.0 0.0 0.00 0.00 0.00 90 1016.2
20260906062051 70 76 0.0 0.0 0.00 0.00 0.00 90 1016.1
20260906061553 70 85 0.0 0.0 0.00 0.00 0.00 90 1016.1
20260906061050 70 89 0.0 0.0 0.00 0.00 0.00 90 1016.2
20260906060049 71 89 0.0 0.0 0.00 0.00 0.00 89 1016.2
20260906055550 71 89 0.0 0.0 0.00 0.00 0.00 89 1016.1
20260906055049 71 91 0.0 0.0 0.00 0.00 0.00 89 1016.1
20260906054602 71 91 0.0 0.0 0.00 0.00 0.00 89 1016.2
20260906054048 71 91 0.0 0.0 0.00 0.00 0.00 89 1016.2
20260906053547 71 91 0.0 0.0 0.00 0.00 0.00 89 1016.1
20260906053048 71 91 0.0 0.0 0.00 0.00 0.00 89 1016.2
20260906052547 71 91 0.0 0.0 0.00 0.00 0.00 89 1016.2
20260906052047 71 91 0.0 0.0 0.00 0.00 0.00 88 1016.2
20260906051547 71 90 0.0 0.0 0.00 0.00 0.00 88 1016.2
20260906051047 71 90 0.0 0.0 0.00 0.00 0.00 88 1016.2
20260906050046 71 91 0.0 0.0 0.00 0.00 0.00 88 1016.1
20260906045546 71 91 0.0 0.0 0.00 0.00 0.00 88 1016.2
20260906045045 71 91 0.0 0.0 0.00 0.00 0.00 88 1016.3
20260906044545 71 91 0.0 0.0 0.00 0.00 0.00 88 1016.3
20260906044047 71 91 0.0 0.0 0.00 0.00 0.00 87 1016.3
20260906043544 71 91 0.0 0.0 0.00 0.00 0.00 87 1016.4
20260906043148 71 91 0.0 0.0 0.00 0.00 0.00 87 1016.4
20260906042545 71 91 0.0 0.0 0.00 0.00 0.00 87 1016.5
20260906042044 72 90 0.0 0.0 0.00 0.00 0.00 87 1016.5
20260906041544 72 90 0.0 0.0 0.00 0.00 0.00 87 1016.5
20260906041042 72 113 0.0 0.0 0.00 0.00 0.00 86 1016.5
20260906040048 72 119 0.0 0.0 0.00 0.00 0.00 86 1016.4
20260906035544 72 119 0.0 0.0 0.00 0.00 0.00 86 1016.5
20260906035044 72 119 0.0 0.0 0.00 0.00 0.00 86 1016.5
20260906034549 73 119 0.0 0.0 0.00 0.00 0.00 86 1016.4
20260906034043 73 119 0.0 0.0 0.00 0.00 0.00 86 1016.5
20260906033543 73 119 0.0 0.0 0.00 0.00 0.00 86 1016.4
20260906033045 73 119 0.0 0.0 0.00 0.00 0.00 86 1016.4
20260906032543 73 119 0.0 0.0 0.00 0.00 0.00 86 1016.4
20260906032043 72 119 0.0 0.0 0.00 0.00 0.00 86 1016.5
20260906031604 72 119 0.0 0.0 0.00 0.00 0.00 85 1016.5
20260906031046 72 119 0.0 0.0 0.00 0.00 0.00 85 1016.5
20260906030041 72 119 0.0 0.0 0.00 0.00 0.00 84 1016.4
20260906025541 72 119 0.0 0.0 0.00 0.00 0.00 84 1016.1
20260906025040 73 119 0.0 0.0 0.00 0.00 0.00 84 1015.8
20260906024555 73 119 0.0 0.0 0.00 0.00 0.00 84 1015.8
20260906024042 73 119 0.0 0.0 0.00 0.00 0.00 83 1015.7
20260906023539 73 119 0.0 0.0 0.00 0.00 0.00 83 1015.8
20260906023044 73 119 0.0 0.0 0.00 0.00 0.00 82 1015.7
20260906022539 73 119 0.0 0.0 0.00 0.00 0.00 82 1015.6
20260906022040 73 119 0.0 0.0 0.00 0.00 0.00 81 1015.5
20260906021539 74 119 0.0 0.0 0.00 0.00 0.00 81 1015.4
20260906021038 74 119 0.0 0.0 0.00 0.00 0.00 81 1015.3
20260906020040 74 119 0.0 0.0 0.00 0.00 0.00 81 1015.1
20260906015539 74 119 0.0 0.0 0.00 0.00 0.00 81 1014.9
20260906015039 74 119 0.0 0.0 0.00 0.00 0.00 81 1014.6
20260906014539 74 119 0.0 0.0 0.00 0.00 0.00 80 1014.5
20260906014043 74 119 0.0 0.0 0.00 0.00 0.00 80 1014.5
20260906013539 75 119 0.0 0.0 0.00 0.00 0.00 80 1014.5
20260906013039 75 119 0.0 0.0 0.00 0.00 0.00 79 1014.4
20260906012538 75 119 0.0 0.0 0.00 0.00 0.00 79 1014.3
20260906012038 75 119 0.0 0.0 0.00 0.00 0.00 79 1014.3
20260906011538 75 119 0.0 0.0 0.00 0.00 0.00 79 1014.3
20260906011043 75 119 0.0 0.0 0.00 0.00 0.00 78 1014.2
20260906010047 75 119 0.0 0.0 0.00 0.00 0.00 77 1014.0
20260906005537 75 119 0.0 0.0 0.00 0.00 0.00 77 1013.9
20260906005038 76 117 0.0 0.0 0.00 0.00 0.00 77 1013.9
20260906004540 76 117 0.0 0.0 0.00 0.00 0.00 76 1013.9
20260906004038 76 117 0.0 0.0 0.00 0.00 0.00 75 1013.9
20260906003537 77 117 0.0 0.0 0.00 0.00 0.00 74 1014.0
20260906003038 77 116 0.0 0.0 0.00 0.00 0.00 74 1014.0
20260906002537 77 115 0.0 0.0 0.00 0.00 0.00 74 1013.9
20260906002039 77 113 0.0 0.0 0.00 0.00 0.00 73 1013.9
20260906001538 78 115 0.0 0.0 0.00 0.00 0.00 73 1014.0
20260906001036 78 113 0.0 0.0 0.00 0.00 0.00 73 1014.0
20260906000041 78 118 0.0 0.0 0.00 0.00 0.00 74 1013.9
20260905235536 79 158 0.0 0.0 0.00 0.00 0.00 74 1013.8
20260905235037 79 117 0.0 0.0 0.00 0.00 0.00 74 1013.6
20260905234540 79 96 0.0 0.0 0.00 0.00 0.00 74 1013.4